Home > Weather > Sioux Falls > Past weeks

Flag for USA Past Weather in Sioux Falls, South Dakota, USA — Yesterday and Last 2 Weeks

Now
78 °F

Clear.


Feels Like: 80 °F
Forecast: 66 / 83 °F
Wind: 12 mph from North

Location: Foss Field

Current Time: Jul 24, 2016 at 2:02:42 AM

Latest Report: Jul 24, 2016 at 12:56 AM


Visibility: 10 mi

Pressure: 29.81 "Hg

Humidity: 76%

Dew Point: 70 °F

Location of Sioux FallsLocation

Past Weather in Sioux Falls — Graph

°F

Sioux Falls Temperature Yesterday

Maximum temperature yesterday: 91 °F (at 4:56 PM)
Minimum temperature yesterday: 72 °F (at 6:56 AM)
Average temperature yesterday: 83 °F

High & Low Weather Summary for the Past Weeks

 TemperatureHumidityPressure
High93 °F (Jul 21, 4:56 PM)100% (Jul 10, 11:56 AM)30.18 "Hg (Jul 10, 11:56 AM)
Low53 °F (Jul 15, 3:56 AM)29% (Jul 12, 3:56 PM)29.52 "Hg (Jul 11, 2:56 PM)
Average77 °F71%29.90 "Hg
* Reported Jul 9 12:56 AM — Jul 24 12:56 AM, Sioux Falls, Weather by CustomWeather, © 2016

Note: Actual official high and low records may vary slightly from our data, if they occured in-between our weather recording intervals... More about our weather records

Advertising

Sioux Falls Weather History for the Previous 24 Hours

Scroll right to see more
 ConditionsComfort  
Time TempWeatherWind HumidityBarometerVisibility
12:56 AM
Sun, Jul 24
78 °FClear.12 mph76%29.81 "Hg10 mi
11:56 PM
Sat, Jul 23
80 °FPassing clouds.13 mph79%29.78 "Hg10 mi
10:56 PM84 °FPassing clouds.6 mph77%29.75 "Hg10 mi
9:56 PM86 °FPassing clouds.7 mph65%29.72 "Hg10 mi
8:56 PM87 °FPassing clouds.5 mph63%29.71 "Hg10 mi
7:56 PM89 °FPassing clouds.6 mph59%29.70 "Hg10 mi
6:56 PM90 °FPassing clouds.8 mph56%29.70 "Hg10 mi
5:56 PM91 °FPassing clouds.5 mph54%29.70 "Hg10 mi
4:56 PM91 °FScattered clouds.8 mph56%29.70 "Hg10 mi
3:56 PM90 °FScattered clouds.10 mph59%29.71 "Hg10 mi
2:56 PM90 °FScattered clouds.12 mph57%29.73 "Hg10 mi
1:56 PM89 °FScattered clouds.12 mph59%29.74 "Hg10 mi
12:56 PM87 °FScattered clouds.15 mph61%29.74 "Hg10 mi
11:56 AM83 °FBroken clouds.15 mph77%29.75 "Hg10 mi
10:56 AM79 °FBroken clouds.8 mph84%29.78 "Hg10 mi
9:56 AM75 °FPartly sunny.12 mph88%29.79 "Hg10 mi
8:56 AM73 °FLight rain. Partly sunny.6 mph90%29.81 "Hg10 mi
7:56 AM72 °FLight rain. Broken clouds.10 mph93%29.78 "Hg10 mi
6:56 AM72 °FThunderstorms. Mostly cloudy.7 mph93%29.81 "Hg10 mi
5:56 AM77 °FStrong thunderstorms. Fog.7 mph90%29.80 "Hg1 mi
4:56 AM80 °FPassing clouds.8 mph90%29.82 "Hg10 mi
3:56 AM80 °FPassing clouds.10 mph90%29.83 "Hg10 mi
2:56 AM80 °FClear.7 mph90%29.85 "Hg10 mi
Weather by CustomWeather, © 2016

See weather overviewHow to use our weather pages